Flag for Brazil Weather past 2 weeks in Foz do Iguaçu, Paraná, Brazil

Now
72 °F

Passing clouds.


Feels Like: 67 °F
Forecast: 67 / 77 °F
Wind: No wind

Location: Foz Do Iguacu Aeroporto

Current Time: Mar 28, 2015 at 9:53:09 PM

Latest Report: Mar 28, 2015 at 9:00 PM


Visibility: N/A

Pressure: 30.01 "Hg

Humidity: 94%

Dew point: 70 °F

Location of Foz do IguaçuLocation

Historic Weather in Foz do Iguaçu — Graph

°F

Foz do Iguaçu temperature yesterday

Maximum temperature yesterday: 79 °F (at 3:00 PM)
Minimum temperature yesterday: 70 °F (at 4:00 AM)
Average temperature yesterday: 73 °F

Past Weeks' High & Low Weather Summary

 TemperatureHumidityPressure
High91 °F (Mar 16, 2:00 PM)100% (Mar 16, 1:00 AM)30.09 "Hg (Mar 16, 1:00 AM)
Low55 °F (Mar 23, 6:00 AM)41% (Mar 14, 4:00 PM)29.80 "Hg (Mar 13, 9:00 PM)
Average76 °F81%29.94 "Hg
* Reported Mar 13 9:00 PM — Mar 28 9:00 PM, Foz do Iguaçu, Weather by CustomWeather, © 2015

Note: Actual official high and low records may vary slightly from our data, if they occured in-between our weather recording intervals... More about our weather records

Advertising

Foz do Iguaçu weather history for previous 24 hours

 ConditionsComfort  
Time TempWeatherWind HumidityBarometerVisibility
9:00 PM
Sat, Mar 28
72 °FPassing clouds.No wind94%30.01 "HgN/A
8:00 PM72 °FPassing clouds.3 mph100%30.01 "HgN/A
7:00 PM72 °FLight rain. Fog.3 mph100%30.01 "Hg3 mi
6:00 PM73 °FPartly cloudy.5 mph94%30.01 "Hg5 mi
5:00 PM75 °FThundershowers. Broken clouds.6 mph83%N/AN/A
4:00 PM79 °FScattered showers. Scattered clouds.2 mph84%N/AN/A
3:00 PM81 °FPartly sunny.3 mph79%30.01 "HgN/A
2:00 PM79 °FPartly sunny.5 mph84%30.01 "HgN/A
1:00 PM77 °FPartly sunny.3 mph83%30.04 "HgN/A
12:00 PM75 °FPartly sunny.5 mph89%30.07 "HgN/A
11:00 AM73 °FMostly cloudy.2 mph94%30.09 "HgN/A
10:00 AM72 °FLow clouds.3 mph94%30.09 "Hg5 mi
9:00 AM72 °FFog.No wind94%30.07 "Hg2 mi
8:00 AM70 °FFog.2 mph94%30.04 "Hg1 mi
7:00 AMN/ASnow.2 mphN/AN/A3 mi
6:00 AM70 °FFog.3 mph94%30.04 "Hg3 mi
5:00 AM70 °FFog.2 mph94%30.04 "Hg1 mi
4:00 AM68 °FFog.5 mph100%30.01 "Hg1 mi
3:00 AM68 °FPartly cloudy.No wind100%30.01 "Hg5 mi
2:00 AM70 °FPartly cloudy.5 mph94%30.04 "Hg5 mi
1:00 AM70 °FPartly cloudy.3 mph94%30.04 "Hg5 mi
12:00 AM70 °FLight rain. Partly cloudy.7 mph94%30.04 "Hg5 mi
11:00 PM
Fri, Mar 27
72 °FLight rain. Partly cloudy.3 mph94%30.04 "Hg5 mi
10:00 PM72 °FLight rain. Partly cloudy.3 mph94%30.07 "Hg5 mi
9:00 PM72 °FPassing clouds.6 mph94%30.04 "HgN/A
Weather by CustomWeather, © 2015

See weather overviewHow to use our weather pages